Location: ??? ????
(38.0580°N, 23.1536°E)
Time: 14:27:42
(UTC+00:00)

YAOGAN 1 - Pass Details

Date: 13 December 2025
Orbit: 605 x 607 km, 97.8° (Epoch: 17 January)

Event Time Altitude Azimuth Distance (km) Brightness Sun altitude
Rises 17:16:26 0° 177° (S) 2,849 6.1 -24.4°
Reaches altitude 10° 17:18:39 10° 182° (S) 1,950 5.2 -24.9°
Maximum altitude 17:22:47 53° 260° (W) 747 3.2 -25.7°
Drops below altitude 10° 17:26:58 10° 338° (NNW) 1,964 5.2 -26.5°
Sets 17:29:12 0° 343° (NNW) 2,872 6.1 -26.9°
